This is the latest recevied weather packets stored in our database for station/object F5OZP-13. If no packets are shown the sender has not sent any weather packets the latest 10 day(s).
| Time | Temp. | Humidity | Pressure | Rain* | Wind** | Luminosity | Snow |
|---|---|---|---|---|---|---|---|
| 1777542909 | 26.11° C | 99% | 1017.6 hPa | - | - | 17 W/m² | - |
| 1777542600 | 25° C | 99% | 1017.5 hPa | - | - | 12 W/m² | - |
| 1777542292 | 26.11° C | 99% | 1017.5 hPa | - | - | 13 W/m² | - |
| 1777541984 | 25.56° C | 99% | 1017.6 hPa | - | - | 15 W/m² | - |
| 1777541684 | 24.44° C | 99% | 1017.5 hPa | - | - | 5 W/m² | - |
| 1777541368 | 24.44° C | 99% | 1017.4 hPa | - | - | 10 W/m² | - |
| 1777541059 | 23.89° C | 99% | 1017.4 hPa | - | - | 48 W/m² | - |
| 1777540751 | 24.44° C | 99% | 1017.2 hPa | - | - | 43 W/m² | - |
| 1777540443 | 22.78° C | 99% | 1017.2 hPa | - | - | 56 W/m² | - |
| 1777540140 | 21.67° C | 99% | 1017.2 hPa | - | - | 25 W/m² | - |
| 1777539840 | 20.56° C | 99% | 1017.2 hPa | - | - | 0 W/m² | - |
| 1777539523 | 21.11° C | 99% | 1017.2 hPa | - | - | 0 W/m² | - |
| 1777539215 | 21.67° C | 99% | 1017.2 hPa | - | - | 0 W/m² | - |
| 1777538907 | 22.78° C | 99% | 1017.1 hPa | - | - | 0 W/m² | - |
| 1777538599 | 22.78° C | 99% | 1017 hPa | - | - | 0 W/m² | - |
| 1777538291 | 23.33° C | 99% | 1016.9 hPa | - | - | 2 W/m² | - |
| 1777537991 | 23.33° C | 99% | 1017 hPa | - | - | 0 W/m² | - |
| 1777537680 | 23.89° C | 99% | 1016.8 hPa | - | - | 6 W/m² | - |
| 1777537366 | 25° C | 99% | 1016.8 hPa | - | - | 8 W/m² | - |
| 1777537058 | 25° C | 99% | 1016.8 hPa | - | - | 6 W/m² | - |
| 1777536750 | 24.44° C | 99% | 1016.6 hPa | - | - | 0 W/m² | - |
| 1777536446 | 23.89° C | 99% | 1016.6 hPa | - | - | 3 W/m² | - |
| 1777536146 | 22.78° C | 99% | 1016.6 hPa | - | - | 0 W/m² | - |
| 1777535830 | 21.67° C | 99% | 1016.4 hPa | - | - | 0 W/m² | - |
| 1777535522 | 21.67° C | 99% | 1016.4 hPa | - | - | 0 W/m² | - |
* Rain since midnight (hover to see other rain measurements)
** Current wind speed in m/s (hover to see current wind gust speed)